Back to catalog

COSMOS 2518

AliveNavigationHEO
NORAD 42719·PAYLOAD·🇷🇺 Russia

Launched May 25, 2017 from Plesetsk Cosmodrome

Loading…

Next Passes (next 24 hours)

TLE

AgingSource: Space-Track

Epoch: Sep 4, 2026, 18:50 UTC

1 42719U 17027A   26247.78515787  .00000008  00000-0  00000-0 0  9997
2 42719  63.0194 238.9677 6930006 273.8909  16.0991  2.00742015 68003

Track COSMOS 2518 in real time with AllMySat

Download on the App Store